This is the latest recevied weather packets stored in our database for station/object W4MLN-3. If no packets are shown the sender has not sent any weather packets the latest 10 day(s).
| Time | Temp. | Humidity | Pressure | Rain* | Wind** | Luminosity | Snow |
|---|---|---|---|---|---|---|---|
| 1787588403 | 22.22° C | 55% | 1019.3 hPa | 0 mm | - | - | - |
| 1787588124 | 22.22° C | 58% | 1019.3 hPa | 0 mm | - | - | - |
| 1787587805 | 22.78° C | 58% | 1019.2 hPa | 0 mm | - | - | - |
| 1787587587 | 22.78° C | 55% | 1019.2 hPa | 0 mm | - | - | - |
| 1787587203 | 22.78° C | 52% | 1019.3 hPa | 0 mm | - | - | - |
| 1787586903 | 22.78° C | 53% | 1019.3 hPa | 0 mm | - | - | - |
| 1787586624 | 22.78° C | 53% | 1019.3 hPa | 0 mm | - | - | - |
| 1787586303 | 22.78° C | 56% | 1019.3 hPa | 0 mm | - | - | - |
| 1787586003 | 22.78° C | 54% | 1019.2 hPa | 0 mm | - | - | - |
| 1787585703 | 22.78° C | 57% | 1019.2 hPa | 0 mm | - | - | - |
| 1787585403 | 22.78° C | 53% | 1019.2 hPa | 0 mm | - | - | - |
| 1787585103 | 22.22° C | 56% | 1019.2 hPa | 0 mm | - | - | - |
| 1787584803 | 22.22° C | 54% | 1019.2 hPa | 0 mm | - | - | - |
| 1787584503 | 22.22° C | 53% | 1019.2 hPa | 0 mm | - | - | - |
| 1787584203 | 22.22° C | 57% | 1019.2 hPa | 0 mm | - | - | - |
| 1787583987 | 22.22° C | 56% | 1019.2 hPa | 0 mm | - | - | - |
| 1787583603 | 22.22° C | 58% | 1019.2 hPa | 0 mm | - | - | - |
| 1787583303 | 22.22° C | 60% | 1019.1 hPa | 0 mm | - | - | - |
| 1787583003 | 21.67° C | 58% | 1019.2 hPa | 0 mm | - | - | - |
| 1787582703 | 21.67° C | 57% | 1019.2 hPa | 0 mm | - | - | - |
| 1787582404 | 21.67° C | 58% | 1019.2 hPa | 0 mm | - | - | - |
| 1787582103 | 21.11° C | 56% | 1019.1 hPa | 0 mm | - | - | - |
| 1787581803 | 20.56° C | 61% | 1019 hPa | 0 mm | - | - | - |
| 1787581503 | 20.56° C | 58% | 1019 hPa | 0 mm | - | - | - |
| 1787581203 | 20° C | 57% | 1019.1 hPa | 0 mm | - | - | - |
* Rain latest hour (hover to see other rain measurements)
** Current wind speed in m/s (hover to see current wind gust speed)